QPF
0.00 0.00 0.00 0.00 0.00 0.00 0.00 0.00 0.00 0.00 0.00 0.00 0.00 0.00 0.00 0.00 0.00 0.00 0.00 0.00 0.00 0.01 0.01 0.02 0.02 0.01 0.00 0.01 0.02 0.01 0.01 0.00 0.01 0.01 0.01 0.02 0.02 0.03 0.03 0.03 0.04 0.04 0.04 0.04
0.00 0.00 0.00 0.00 0.00 0.00 0.00 0.00 0.00 0.00 0.00 0.00 0.00 0.00 0.00 0.00 0.00 0.00 0.00 0.00 0.00 0.00 0.01 0.02 0.01 0.00 0.00 0.01 0.01 0.01 0.00 0.01 0.01 0.01 0.01 0.02 0.02 0.03 0.03 0.03 0.04 0.04 0.04 0.04
0.00 0.00 0.00 0.00 0.00 0.00 0.00 0.00 0.00 0.00 0.00 0.00 0.00 0.00 0.00 0.00 0.00 0.01 0.01 0.01 0.00 0.00 0.01 0.01 0.01 0.00 0.01 0.01 0.01 0.01 0.01 0.01 0.01 0.01 0.01 0.03 0.03 0.03 0.04 0.04 0.03 0.03 0.03 0.04
0.00 0.00 0.00 0.00 0.00 0.00 0.00 0.00 0.00 0.00 0.00 0.00 0.00 0.00 0.00 0.00 0.00 0.01 0.01 0.01 0.01 0.00 0.01 0.01 0.01 0.01 0.02 0.02 0.02 0.02 0.02 0.01 0.01 0.02 0.03 0.04 0.04 0.06 0.07 0.07 0.06 0.05 0.06 0.05
0.00 0.00 0.00 0.00 0.00 0.00 0.00 0.00 0.00 0.00 0.00 0.00 0.00 0.00 0.00 0.00 0.01 0.01 0.01 0.01 0.01 0.01 0.01 0.01 0.02 0.02 0.03 0.03 0.02 0.02 0.02 0.03 0.05 0.05 0.04 0.05 0.08 0.11 0.11 0.08 0.05 0.04 0.03 0.03
0.00 0.00 0.00 0.00 0.00 0.00 0.00 0.00 0.00 0.00 0.00 0.00 0.01 0.01 0.01 0.01 0.01 0.01 0.00 0.00 0.01 0.01 0.01 0.01 0.02 0.02 0.03 0.02 0.02 0.01 0.02 0.03 0.05 0.04 0.04 0.07 0.10 0.12 0.10 0.08 0.07 0.07 0.06 0.06
0.00 0.00 0.00 0.00 0.00 0.00 0.00 0.00 0.00 0.00 0.01 0.01 0.03 0.03 0.02 0.02 0.01 0.01 0.01 0.01 0.00 0.00 0.00 0.00 0.01 0.01 0.01 0.01 0.01 0.02 0.02 0.02 0.03 0.04 0.06 0.10 0.15 0.15 0.15 0.15 0.15 0.11 0.09 0.07
0.00 0.00 0.00 0.00 0.00 0.00 0.00 0.00 0.00 0.01 0.01 0.01 0.01 0.01 0.01 0.01 0.01 0.01 0.01 0.01 0.01 0.00 0.00 0.00 0.01 0.01 0.02 0.02 0.02 0.02 0.03 0.04 0.05 0.08 0.10 0.12 0.14 0.17 0.17 0.14 0.12 0.10 0.09 0.07
0.00 0.00 0.00 0.00 0.00 0.00 0.00 0.00 0.00 0.01 0.00 0.01 0.01 0.01 0.02 0.02 0.02 0.02 0.01 0.01 0.01 0.01 0.01 0.00 0.01 0.03 0.04 0.05 0.05 0.05 0.06 0.07 0.09 0.13 0.16 0.16 0.13 0.10 0.09 0.08 0.06 0.05 0.04 0.04
0.00 0.00 0.00 0.00 0.00 0.00 0.00 0.00 0.00 0.00 0.00 0.01 0.01 0.01 0.01 0.01 0.02 0.03 0.03 0.01 0.01 0.01 0.01 0.00 0.01 0.02 0.04 0.06 0.07 0.07 0.08 0.07 0.07 0.09 0.09 0.09 0.09 0.06 0.05 0.06 0.06 0.05 0.05 0.04
0.00 0.00 0.00 0.00 0.00 0.00 0.00 0.00 0.01 0.02 0.01 0.01 0.01 0.01 0.01 0.01 0.01 0.01 0.02 0.02 0.02 0.03 0.02 0.02 0.01 0.01 0.02 0.04 0.06 0.06 0.06 0.05 0.05 0.05 0.06 0.07 0.07 0.07 0.05 0.05 0.05 0.05 0.05 0.05
0.01 0.01 0.01 0.01 0.00 0.00 0.00 0.00 0.01 0.02 0.03 0.02 0.01 0.01 0.01 0.01 0.01 0.01 0.01 0.02 0.04 0.05 0.05 0.04 0.04 0.04 0.05 0.06 0.07 0.07 0.06 0.05 0.04 0.05 0.06 0.07 0.07 0.07 0.06 0.07 0.10 0.10 0.08 0.06
0.01 0.01 0.01 0.02 0.01 0.01 0.01 0.01 0.01 0.01 0.02 0.02 0.02 0.02 0.02 0.01 0.01 0.01 0.02 0.03 0.06 0.07 0.08 0.08 0.07 0.06 0.07 0.09 0.07 0.05 0.05 0.05 0.05 0.05 0.06 0.06 0.07 0.07 0.08 0.09 0.11 0.13 0.14 0.11
0.01 0.02 0.02 0.02 0.02 0.02 0.02 0.01 0.01 0.01 0.01 0.01 0.02 0.02 0.02 0.02 0.01 0.01 0.03 0.03 0.05 0.07 0.07 0.07 0.07 0.06 0.06 0.06 0.06 0.06 0.07 0.07 0.07 0.07 0.07 0.08 0.09 0.09 0.08 0.07 0.07 0.08 0.09 0.11
0.03 0.04 0.04 0.03 0.02 0.03 0.02 0.02 0.02 0.02 0.02 0.02 0.02 0.01 0.02 0.03 0.03 0.03 0.04 0.05 0.05 0.05 0.05 0.06 0.06 0.05 0.05 0.06 0.08 0.09 0.09 0.09 0.10 0.10 0.08 0.08 0.06 0.07 0.07 0.06 0.06 0.06 0.07 0.08
0.04 0.06 0.08 0.05 0.03 0.03 0.03 0.02 0.02 0.02 0.02 0.02 0.02 0.02 0.02 0.03 0.04 0.05 0.06 0.06 0.06 0.05 0.05 0.06 0.08 0.08 0.06 0.05 0.08 0.09 0.09 0.07 0.06 0.07 0.08 0.08 0.07 0.05 0.04 0.04 0.04 0.05 0.06 0.06
0.06 0.10 0.11 0.09 0.06 0.04 0.03 0.02 0.02 0.02 0.03 0.03 0.03 0.03 0.03 0.04 0.06 0.06 0.06 0.06 0.05 0.06 0.06 0.06 0.08 0.11 0.12 0.10 0.07 0.06 0.05 0.04 0.03 0.03 0.03 0.04 0.04 0.04 0.03 0.03 0.03 0.03 0.03 0.03
0.07 0.08 0.09 0.10 0.08 0.05 0.05 0.05 0.03 0.03 0.04 0.03 0.03 0.04 0.06 0.08 0.08 0.06 0.05 0.04 0.04 0.04 0.05 0.06 0.06 0.07 0.08 0.07 0.06 0.04 0.03 0.02 0.02 0.02 0.02 0.03 0.03 0.03 0.02 0.02 0.02 0.02 0.02 0.02
0.05 0.05 0.06 0.06 0.05 0.05 0.07 0.09 0.07 0.04 0.04 0.04 0.04 0.06 0.08 0.09 0.09 0.08 0.05 0.03 0.04 0.04 0.05 0.06 0.07 0.06 0.05 0.04 0.05 0.04 0.03 0.03 0.02 0.02 0.02 0.03 0.03 0.03 0.02 0.02 0.02 0.02 0.02 0.02
0.03 0.04 0.05 0.06 0.05 0.06 0.10 0.10 0.08 0.06 0.05 0.05 0.05 0.08 0.10 0.10 0.08 0.07 0.06 0.05 0.04 0.04 0.04 0.05 0.05 0.06 0.05 0.05 0.06 0.05 0.03 0.03 0.03 0.02 0.03 0.03 0.04 0.04 0.03 0.03 0.02 0.02 0.02 0.03
0.02 0.03 0.04 0.04 0.04 0.04 0.07 0.08 0.06 0.05 0.05 0.06 0.07 0.07 0.06 0.06 0.06 0.05 0.07 0.07 0.06 0.05 0.04 0.03 0.03 0.04 0.05 0.05 0.06 0.06 0.05 0.04 0.03 0.04 0.04 0.04 0.04 0.04 0.04 0.03 0.03 0.03 0.02 0.03
0.02 0.02 0.02 0.03 0.03 0.03 0.03 0.04 0.03 0.03 0.03 0.04 0.05 0.04 0.04 0.04 0.03 0.04 0.06 0.06 0.04 0.04 0.04 0.04 0.04 0.05 0.05 0.05 0.06 0.08 0.08 0.06 0.05 0.04 0.03 0.04 0.05 0.05 0.05 0.04 0.04 0.04 0.04 0.04
0.02 0.01 0.02 0.02 0.03 0.03 0.02 0.02 0.02 0.02 0.03 0.03 0.04 0.04 0.04 0.05 0.04 0.03 0.04 0.04 0.03 0.03 0.03 0.04 0.05 0.06 0.07 0.07 0.08 0.08 0.07 0.08 0.07 0.05 0.04 0.04 0.05 0.06 0.06 0.05 0.05 0.04 0.04 0.04
0.01 0.01 0.01 0.01 0.01 0.02 0.02 0.02 0.02 0.02 0.02 0.04 0.05 0.04 0.05 0.06 0.05 0.04 0.03 0.03 0.02 0.03 0.03 0.04 0.07 0.09 0.10 0.10 0.09 0.08 0.08 0.09 0.08 0.07 0.05 0.05 0.06 0.06 0.05 0.05 0.05 0.04 0.04 0.04
0.01 0.01 0.02 0.02 0.03 0.03 0.02 0.02 0.02 0.03 0.04 0.05 0.05 0.05 0.07 0.05 0.04 0.03 0.02 0.02 0.02 0.03 0.05 0.06 0.07 0.09 0.12 0.13 0.11 0.10 0.10 0.11 0.12 0.09 0.07 0.07 0.08 0.08 0.08 0.08 0.07 0.05 0.03 0.03
0.01 0.02 0.02 0.03 0.03 0.04 0.04 0.05 0.05 0.05 0.05 0.06 0.06 0.08 0.09 0.05 0.02 0.02 0.02 0.02 0.03 0.03 0.05 0.05 0.06 0.08 0.09 0.10 0.10 0.09 0.09 0.09 0.11 0.09 0.09 0.09 0.09 0.09 0.11 0.10 0.08 0.05 0.04 0.03
0.01 0.01 0.02 0.03 0.03 0.04 0.05 0.06 0.05 0.04 0.04 0.05 0.06 0.08 0.09 0.05 0.03 0.02 0.02 0.02 0.02 0.02 0.04 0.05 0.06 0.07 0.08 0.07 0.06 0.06 0.06 0.07 0.08 0.08 0.09 0.09 0.08 0.09 0.12 0.11 0.09 0.06 0.04 0.03
MSLP
1008.42 1008.14 1008.04 1008.12 1008.39 1008.80 1009.28 1009.74 1010.10 1010.32 1010.34 1010.17 1009.84 1009.39 1008.89 1008.39 1007.93 1007.53 1007.21 1006.96 1006.77 1006.61 1006.50 1006.43 1006.42 1006.50 1006.69 1007.02 1007.48 1008.05 1008.70 1009.38 1010.05 1010.64 1011.14 1011.51 1011.77 1011.93 1012.03 1012.09 1012.14 1012.21 1012.31 1012.43
1009.07 1008.89 1008.85 1008.95 1009.19 1009.53 1009.91 1010.27 1010.54 1010.67 1010.65 1010.48 1010.16 1009.75 1009.29 1008.82 1008.37 1007.97 1007.60 1007.28 1006.98 1006.72 1006.48 1006.29 1006.18 1006.17 1006.29 1006.56 1006.99 1007.55 1008.21 1008.93 1009.64 1010.31 1010.89 1011.36 1011.72 1011.97 1012.15 1012.28 1012.39 1012.50 1012.62 1012.75
1009.77 1009.73 1009.77 1009.93 1010.16 1010.45 1010.75 1011.00 1011.16 1011.21 1011.12 1010.91 1010.57 1010.17 1009.72 1009.26 1008.80 1008.37 1007.95 1007.56 1007.17 1006.79 1006.44 1006.14 1005.92 1005.81 1005.85 1006.06 1006.44 1006.98 1007.63 1008.37 1009.12 1009.85 1010.51 1011.06 1011.51 1011.86 1012.13 1012.33 1012.51 1012.66 1012.81 1012.96
1010.49 1010.58 1010.73 1010.94 1011.18 1011.44 1011.66 1011.82 1011.89 1011.84 1011.68 1011.41 1011.05 1010.63 1010.18 1009.71 1009.25 1008.78 1008.32 1007.85 1007.38 1006.90 1006.45 1006.04 1005.71 1005.50 1005.45 1005.58 1005.90 1006.39 1007.01 1007.74 1008.51 1009.27 1009.99 1010.61 1011.14 1011.57 1011.91 1012.19 1012.41 1012.61 1012.79 1012.96
1011.18 1011.38 1011.62 1011.88 1012.14 1012.36 1012.53 1012.61 1012.59 1012.46 1012.23 1011.92 1011.53 1011.11 1010.65 1010.19 1009.72 1009.23 1008.73 1008.21 1007.66 1007.10 1006.55 1006.03 1005.60 1005.29 1005.15 1005.19 1005.43 1005.85 1006.43 1007.12 1007.88 1008.65 1009.39 1010.05 1010.64 1011.12 1011.52 1011.84 1012.11 1012.35 1012.55 1012.75
1011.82 1012.10 1012.39 1012.68 1012.93 1013.12 1013.23 1013.24 1013.15 1012.97 1012.70 1012.36 1011.97 1011.56 1011.12 1010.67 1010.21 1009.72 1009.20 1008.64 1008.03 1007.40 1006.76 1006.16 1005.64 1005.23 1004.98 1004.93 1005.08 1005.42 1005.93 1006.57 1007.29 1008.04 1008.78 1009.46 1010.07 1010.58 1011.01 1011.37 1011.67 1011.93 1012.17 1012.39
1012.41 1012.71 1013.01 1013.28 1013.50 1013.64 1013.69 1013.65 1013.51 1013.29 1013.00 1012.67 1012.30 1011.92 1011.52 1011.11 1010.68 1010.20 1009.68 1009.09 1008.45 1007.77 1007.07 1006.39 1005.79 1005.29 1004.96 1004.82 1004.88 1005.14 1005.57 1006.15 1006.81 1007.53 1008.24 1008.91 1009.52 1010.05 1010.49 1010.87 1011.19 1011.47 1011.73 1011.98
1012.93 1013.20 1013.46 1013.68 1013.84 1013.92 1013.91 1013.81 1013.63 1013.39 1013.11 1012.80 1012.47 1012.14 1011.80 1011.44 1011.04 1010.60 1010.09 1009.50 1008.84 1008.12 1007.38 1006.65 1005.99 1005.44 1005.04 1004.82 1004.81 1005.00 1005.36 1005.86 1006.47 1007.14 1007.82 1008.47 1009.07 1009.60 1010.05 1010.45 1010.78 1011.08 1011.37 1011.64
1013.38 1013.59 1013.78 1013.92 1013.99 1013.99 1013.91 1013.75 1013.54 1013.29 1013.01 1012.73 1012.45 1012.17 1011.89 1011.58 1011.23 1010.82 1010.33 1009.75 1009.09 1008.37 1007.61 1006.86 1006.17 1005.58 1005.14 1004.89 1004.82 1004.95 1005.26 1005.71 1006.27 1006.90 1007.54 1008.17 1008.76 1009.29 1009.75 1010.16 1010.52 1010.84 1011.15 1011.46
1013.78 1013.89 1013.98 1014.02 1014.00 1013.90 1013.74 1013.53 1013.28 1013.01 1012.74 1012.48 1012.23 1012.00 1011.76 1011.50 1011.19 1010.81 1010.34 1009.79 1009.14 1008.43 1007.68 1006.94 1006.25 1005.66 1005.22 1004.95 1004.86 1004.97 1005.24 1005.66 1006.19 1006.78 1007.41 1008.02 1008.60 1009.13 1009.61 1010.04 1010.41 1010.76 1011.10 1011.44
1014.10 1014.13 1014.11 1014.05 1013.92 1013.73 1013.49 1013.21 1012.91 1012.61 1012.33 1012.07 1011.84 1011.63 1011.42 1011.18 1010.89 1010.53 1010.09 1009.56 1008.94 1008.25 1007.54 1006.84 1006.19 1005.64 1005.22 1004.97 1004.90 1005.00 1005.27 1005.67 1006.18 1006.76 1007.37 1007.98 1008.56 1009.10 1009.59 1010.04 1010.45 1010.82 1011.18 1011.54
1014.34 1014.29 1014.18 1014.03 1013.81 1013.53 1013.21 1012.86 1012.50 1012.16 1011.85 1011.57 1011.33 1011.11 1010.89 1010.66 1010.38 1010.03 1009.61 1009.10 1008.52 1007.88 1007.23 1006.59 1006.00 1005.52 1005.16 1004.95 1004.92 1005.04 1005.32 1005.72 1006.22 1006.79 1007.39 1007.99 1008.58 1009.13 1009.64 1010.11 1010.54 1010.94 1011.32 1011.69
1014.48 1014.37 1014.20 1013.97 1013.67 1013.32 1012.93 1012.51 1012.10 1011.71 1011.36 1011.04 1010.77 1010.52 1010.28 1010.02 1009.73 1009.39 1008.99 1008.51 1007.98 1007.40 1006.82 1006.26 1005.77 1005.36 1005.08 1004.93 1004.94 1005.10 1005.39 1005.79 1006.28 1006.84 1007.42 1008.02 1008.60 1009.16 1009.68 1010.16 1010.60 1011.01 1011.40 1011.77
1014.52 1014.37 1014.15 1013.87 1013.52 1013.11 1012.66 1012.19 1011.73 1011.29 1010.88 1010.52 1010.21 1009.92 1009.65 1009.37 1009.07 1008.73 1008.35 1007.91 1007.44 1006.94 1006.44 1005.98 1005.57 1005.25 1005.04 1004.96 1005.01 1005.19 1005.49 1005.88 1006.36 1006.89 1007.45 1008.02 1008.58 1009.13 1009.65 1010.13 1010.58 1010.99 1011.38 1011.74
1014.44 1014.27 1014.03 1013.71 1013.32 1012.88 1012.39 1011.88 1011.38 1010.90 1010.46 1010.06 1009.70 1009.39 1009.09 1008.80 1008.50 1008.18 1007.82 1007.44 1007.03 1006.61 1006.20 1005.82 1005.50 1005.26 1005.12 1005.08 1005.16 1005.34 1005.63 1006.00 1006.43 1006.92 1007.44 1007.98 1008.51 1009.03 1009.53 1010.00 1010.44 1010.84 1011.21 1011.55
1014.26 1014.08 1013.82 1013.48 1013.07 1012.60 1012.09 1011.57 1011.05 1010.55 1010.08 1009.66 1009.29 1008.96 1008.66 1008.37 1008.09 1007.80 1007.49 1007.16 1006.82 1006.48 1006.15 1005.85 1005.60 1005.42 1005.31 1005.30 1005.38 1005.55 1005.80 1006.12 1006.51 1006.94 1007.40 1007.88 1008.37 1008.85 1009.32 1009.77 1010.19 1010.58 1010.93 1011.25
1014.00 1013.80 1013.52 1013.17 1012.75 1012.27 1011.76 1011.23 1010.71 1010.21 1009.76 1009.35 1008.98 1008.67 1008.39 1008.13 1007.88 1007.64 1007.38 1007.12 1006.84 1006.57 1006.30 1006.06 1005.85 1005.70 1005.61 1005.59 1005.65 1005.77 1005.97 1006.23 1006.55 1006.91 1007.31 1007.73 1008.17 1008.61 1009.05 1009.47 1009.87 1010.24 1010.58 1010.89
1013.69 1013.46 1013.16 1012.79 1012.36 1011.89 1011.38 1010.87 1010.37 1009.90 1009.47 1009.09 1008.77 1008.49 1008.26 1008.05 1007.86 1007.66 1007.47 1007.26 1007.04 1006.81 1006.59 1006.38 1006.19 1006.04 1005.93 1005.88 1005.89 1005.96 1006.09 1006.29 1006.53 1006.83 1007.16 1007.53 1007.92 1008.33 1008.73 1009.13 1009.51 1009.88 1010.21 1010.53
1013.36 1013.09 1012.76 1012.37 1011.93 1011.46 1010.97 1010.48 1010.02 1009.59 1009.21 1008.89 1008.62 1008.41 1008.23 1008.09 1007.95 1007.81 1007.67 1007.51 1007.33 1007.13 1006.92 1006.71 1006.51 1006.33 1006.19 1006.09 1006.04 1006.04 1006.11 1006.24 1006.42 1006.66 1006.95 1007.28 1007.63 1008.01 1008.40 1008.78 1009.16 1009.52 1009.87 1010.19
1013.04 1012.72 1012.36 1011.94 1011.49 1011.03 1010.55 1010.10 1009.68 1009.30 1008.98 1008.72 1008.52 1008.37 1008.25 1008.16 1008.08 1007.99 1007.88 1007.74 1007.58 1007.38 1007.16 1006.93 1006.70 1006.48 1006.28 1006.13 1006.02 1005.97 1005.98 1006.06 1006.20 1006.41 1006.66 1006.97 1007.31 1007.67 1008.05 1008.44 1008.82 1009.19 1009.55 1009.89
1012.74 1012.38 1011.98 1011.55 1011.09 1010.62 1010.17 1009.74 1009.36 1009.03 1008.77 1008.57 1008.42 1008.32 1008.26 1008.21 1008.16 1008.10 1008.00 1007.87 1007.70 1007.49 1007.24 1006.97 1006.69 1006.43 1006.18 1005.98 1005.82 1005.73 1005.71 1005.76 1005.89 1006.08 1006.33 1006.63 1006.97 1007.34 1007.72 1008.11 1008.50 1008.88 1009.25 1009.62
1012.48 1012.09 1011.66 1011.21 1010.74 1010.28 1009.84 1009.44 1009.10 1008.81 1008.58 1008.42 1008.32 1008.25 1008.21 1008.19 1008.15 1008.09 1007.99 1007.84 1007.64 1007.39 1007.11 1006.80 1006.49 1006.18 1005.89 1005.66 1005.48 1005.37 1005.34 1005.39 1005.52 1005.72 1005.98 1006.29 1006.64 1007.02 1007.41 1007.81 1008.20 1008.58 1008.96 1009.34
1012.26 1011.85 1011.40 1010.94 1010.47 1010.02 1009.60 1009.22 1008.90 1008.64 1008.44 1008.29 1008.20 1008.15 1008.11 1008.08 1008.02 1007.94 1007.81 1007.64 1007.40 1007.12 1006.81 1006.47 1006.12 1005.79 1005.49 1005.25 1005.07 1004.97 1004.95 1005.02 1005.17 1005.39 1005.68 1006.01 1006.37 1006.76 1007.15 1007.54 1007.93 1008.31 1008.68 1009.06
1012.08 1011.65 1011.21 1010.75 1010.29 1009.86 1009.45 1009.09 1008.78 1008.53 1008.33 1008.19 1008.09 1008.02 1007.96 1007.90 1007.81 1007.69 1007.53 1007.31 1007.05 1006.74 1006.40 1006.05 1005.70 1005.37 1005.08 1004.86 1004.70 1004.63 1004.65 1004.75 1004.93 1005.18 1005.49 1005.83 1006.21 1006.59 1006.98 1007.35 1007.72 1008.08 1008.43 1008.78
1011.91 1011.50 1011.07 1010.63 1010.20 1009.78 1009.39 1009.05 1008.75 1008.50 1008.30 1008.13 1008.01 1007.90 1007.80 1007.69 1007.56 1007.40 1007.19 1006.95 1006.66 1006.34 1006.00 1005.65 1005.32 1005.02 1004.77 1004.58 1004.48 1004.45 1004.51 1004.65 1004.86 1005.14 1005.46 1005.82 1006.19 1006.56 1006.92 1007.27 1007.61 1007.93 1008.24 1008.56
1011.77 1011.38 1010.98 1010.57 1010.17 1009.78 1009.42 1009.09 1008.80 1008.54 1008.32 1008.14 1007.97 1007.82 1007.67 1007.51 1007.33 1007.13 1006.89 1006.62 1006.33 1006.02 1005.70 1005.38 1005.09 1004.84 1004.65 1004.52 1004.46 1004.49 1004.59 1004.76 1005.00 1005.29 1005.62 1005.97 1006.33 1006.67 1007.01 1007.32 1007.61 1007.89 1008.17 1008.45
1011.62 1011.27 1010.91 1010.55 1010.19 1009.84 1009.51 1009.20 1008.91 1008.65 1008.42 1008.20 1008.00 1007.80 1007.60 1007.40 1007.18 1006.94 1006.68 1006.41 1006.13 1005.84 1005.56 1005.29 1005.06 1004.88 1004.74 1004.67 1004.67 1004.74 1004.88 1005.08 1005.33 1005.62 1005.94 1006.27 1006.60 1006.92 1007.22 1007.50 1007.75 1008.00 1008.23 1008.48
Thickness
5774 5783 5785 5783 5783 5785 5785 5791 5790 5796 5799 5801 5803 5804 5807 5811 5813 5814 5814 5815 5815 5814 5813 5812 5812 5811 5810 5808 5807 5804 5799 5795 5791 5788 5785 5782 5779 5776 5773 5769 5767 5762 5759 5756
5757 5770 5773 5770 5776 5779 5780 5785 5788 5790 5788 5797 5798 5799 5798 5801 5802 5802 5804 5805 5807 5807 5807 5805 5806 5805 5804 5803 5801 5798 5794 5791 5789 5785 5782 5778 5775 5773 5770 5766 5763 5759 5755 5753
5745 5759 5758 5752 5767 5772 5774 5779 5780 5778 5781 5786 5784 5784 5786 5789 5792 5793 5796 5798 5799 5799 5800 5800 5801 5800 5798 5797 5795 5791 5788 5786 5784 5781 5778 5775 5773 5770 5766 5762 5758 5754 5751 5748
5740 5736 5724 5757 5771 5771 5768 5768 5773 5771 5772 5774 5774 5777 5781 5784 5784 5785 5787 5789 5790 5792 5793 5795 5796 5795 5793 5792 5789 5785 5782 5780 5779 5776 5774 5771 5768 5764 5761 5758 5754 5749 5745 5743
5729 5727 5734 5744 5754 5758 5754 5752 5761 5760 5762 5765 5768 5770 5771 5775 5776 5775 5777 5779 5781 5784 5787 5787 5787 5788 5786 5784 5782 5780 5777 5774 5773 5771 5767 5763 5759 5757 5755 5752 5748 5744 5740 5736
5715 5714 5717 5734 5746 5752 5746 5735 5749 5751 5750 5752 5754 5753 5757 5762 5763 5765 5766 5769 5772 5775 5776 5775 5777 5777 5776 5775 5773 5770 5770 5769 5768 5765 5760 5756 5754 5751 5748 5745 5741 5738 5735 5731
5706 5707 5720 5727 5735 5737 5720 5723 5736 5740 5741 5742 5741 5743 5747 5750 5750 5752 5754 5757 5760 5763 5763 5763 5765 5765 5763 5763 5762 5762 5763 5761 5760 5757 5753 5750 5748 5744 5740 5737 5733 5730 5727 5725
5699 5696 5703 5715 5720 5715 5714 5722 5726 5728 5730 5730 5730 5732 5735 5737 5738 5740 5742 5745 5748 5749 5749 5751 5753 5752 5751 5751 5753 5753 5752 5751 5750 5747 5746 5744 5739 5736 5734 5729 5724 5722 5718 5717
5694 5695 5697 5704 5705 5707 5711 5710 5712 5715 5718 5718 5718 5719 5722 5723 5725 5728 5730 5732 5734 5735 5736 5738 5740 5741 5740 5741 5743 5743 5742 5740 5739 5738 5737 5735 5732 5728 5725 5723 5719 5716 5713 5712
5679 5685 5689 5693 5696 5698 5700 5700 5703 5705 5707 5707 5706 5708 5710 5712 5714 5716 5717 5719 5721 5723 5724 5726 5728 5730 5730 5732 5733 5732 5731 5730 5730 5728 5727 5725 5723 5721 5718 5715 5712 5709 5707 5706
5667 5673 5677 5680 5682 5685 5687 5690 5692 5693 5695 5696 5696 5697 5698 5700 5702 5704 5705 5707 5710 5711 5712 5713 5716 5717 5719 5721 5722 5721 5719 5719 5719 5719 5717 5713 5711 5708 5706 5702 5700 5698 5699 5698
5658 5662 5663 5666 5672 5675 5675 5677 5679 5680 5682 5685 5686 5687 5689 5690 5691 5693 5694 5696 5698 5699 5700 5702 5703 5705 5707 5709 5709 5708 5707 5708 5708 5708 5706 5703 5700 5695 5690 5688 5684 5681 5680 5681
5651 5655 5656 5659 5662 5664 5665 5667 5669 5670 5671 5673 5676 5678 5678 5678 5680 5682 5683 5685 5686 5688 5689 5690 5692 5693 5695 5696 5697 5696 5695 5696 5698 5697 5696 5693 5691 5688 5683 5676 5671 5668 5667 5666
5642 5642 5642 5645 5648 5653 5654 5656 5659 5660 5662 5665 5666 5667 5667 5667 5668 5669 5671 5673 5675 5676 5678 5679 5680 5681 5683 5685 5685 5685 5685 5685 5685 5685 5684 5682 5680 5678 5675 5673 5668 5663 5657 5653
5632 5633 5634 5637 5640 5642 5644 5646 5647 5649 5651 5653 5655 5655 5655 5655 5656 5658 5660 5662 5662 5664 5665 5667 5668 5668 5670 5672 5672 5673 5674 5674 5673 5673 5671 5669 5667 5666 5664 5662 5660 5657 5652 5646
5624 5625 5627 5628 5630 5633 5635 5636 5637 5639 5641 5642 5643 5643 5644 5645 5646 5647 5649 5650 5649 5650 5652 5653 5654 5655 5657 5659 5659 5659 5659 5657 5658 5659 5657 5656 5656 5654 5652 5651 5650 5647 5643 5639
5614 5615 5616 5618 5621 5624 5626 5627 5629 5631 5632 5632 5632 5633 5634 5634 5634 5635 5636 5637 5638 5638 5639 5641 5642 5643 5645 5646 5647 5648 5648 5647 5644 5645 5644 5644 5645 5643 5641 5640 5638 5635 5631 5626
5610 5610 5611 5611 5613 5615 5616 5618 5620 5621 5621 5622 5622 5622 5622 5622 5622 5623 5624 5625 5626 5626 5628 5629 5631 5632 5634 5635 5636 5636 5637 5638 5636 5633 5632 5630 5630 5629 5628 5627 5625 5623 5619 5614
5604 5604 5605 5605 5606 5606 5606 5608 5609 5611 5611 5612 5611 5611 5611 5612 5612 5612 5613 5613 5613 5614 5614 5616 5617 5621 5622 5623 5623 5624 5625 5624 5622 5621 5619 5615 5617 5617 5616 5614 5612 5609 5606 5602
5597 5598 5598 5598 5599 5598 5598 5600 5601 5601 5601 5601 5601 5601 5600 5601 5602 5602 5602 5602 5602 5603 5604 5605 5608 5610 5611 5612 5612 5614 5614 5613 5611 5609 5608 5607 5606 5605 5603 5600 5598 5595 5591 5588
5590 5590 5590 5590 5590 5590 5590 5591 5592 5592 5593 5593 5592 5591 5591 5592 5593 5593 5594 5593 5592 5592 5594 5594 5597 5600 5601 5601 5600 5603 5603 5602 5600 5598 5596 5594 5592 5591 5589 5587 5585 5582 5579 5576
5583 5583 5583 5582 5582 5582 5583 5584 5584 5585 5585 5585 5585 5585 5584 5584 5584 5583 5583 5582 5582 5580 5584 5586 5587 5586 5588 5589 5592 5592 5592 5591 5589 5587 5584 5583 5581 5579 5577 5575 5572 5570 5568 5565
5576 5575 5575 5575 5576 5576 5577 5578 5578 5579 5579 5578 5577 5576 5576 5575 5576 5576 5574 5573 5573 5571 5574 5574 5573 5574 5576 5581 5582 5583 5582 5580 5579 5577 5574 5572 5570 5567 5566 5563 5561 5559 5556 5553
5570 5569 5569 5570 5571 5572 5572 5573 5573 5573 5573 5573 5572 5571 5570 5569 5568 5567 5566 5562 5561 5562 5564 5561 5562 5564 5567 5572 5572 5572 5571 5569 5568 5566 5564 5562 5560 5558 5556 5554 5551 5549 5545 5542
5564 5564 5565 5565 5565 5566 5566 5567 5567 5566 5566 5566 5565 5564 5564 5563 5562 5561 5559 5558 5555 5555 5556 5555 5554 5556 5560 5562 5562 5561 5560 5559 5558 5557 5555 5554 5552 5549 5547 5544 5541 5538 5535 5532
5559 5559 5559 5559 5559 5559 5561 5562 5561 5560 5560 5559 5559 5559 5559 5558 5556 5555 5555 5554 5553 5550 5551 5551 5551 5551 5553 5553 5552 5552 5551 5550 5549 5547 5546 5544 5541 5539 5537 5534 5531 5528 5525 5522
5556 5556 5555 5555 5555 5555 5556 5556 5556 5555 5555 5555 5554 5553 5553 5552 5552 5551 5550 5550 5550 5549 5548 5547 5547 5547 5547 5546 5545 5544 5543 5542 5540 5538 5536 5534 5532 5529 5527 5523 5521 5517 5514 5512